Header for Extended Forecast Station List Page

Search by: ID | Name | Date | Parm | Value | Avg | % Avg
Sort by: ID | Name | Date | Parm | Value | Avg | % Avg

Enter search or view all records.

Click on id for station plot
#IDNameDateParmValueAvg% Avg
0ABOM8CLARK FORK-ABOVE MISSOULA10-07-2019DISCHARGE (KAF)393352112
1AFRI1SNAKE-AMERICAN FALLS RESERVOIR10-07-2019INFLOW (KAF)14971459103
2ALFW1PEND OREILLE-ALBENI FALLS DAM10-07-2019INFLOW (KAF)3009417372
3ALPW4SNAKE-NEAR ALPINE10-07-2019DISCHARGE (KAF)417407103
4ANAW1SNAKE-NEAR ANATONE10-07-2019DISCHARGE (KAF)3981553972
5ANTI1HENRYS FORK-AT ST. ANTHONY10-07-2019DISCHARGE (KAF)387340114
6ARAI1SF BOISE-ANDERSON RANCH DAM10-07-2019INFLOW (KAF)8373113
7ARDW1ENTIAT-NEAR ARDENVOIR10-07-2019DISCHARGE (KAF)2622116
8BELM8CLARK FORK-BELOW MISSOULA10-07-2019DISCHARGE (KAF)592589100
9BERO3MALHEUR-AGENCY VALLEY DAM10-07-2019INFLOW (KAF)131589
10BFEI1KOOTENAI-AT BONNERS FERRY10-07-2019STAGE (FT)MMM
11BFTI1SNAKE-NEAR BLACKFOOT10-07-2019DISCHARGE (KAF)823771107
12BIGI1BOISE-AT GLENWOOD BRIDGE10-07-2019DISCHARGE (KAF)5839148
13BITM8BITTERROOT-NEAR MISSOULA10-07-2019DISCHARGE (KAF)19523284
14BONM8BLACKFOOT-NEAR BONNER10-07-2019DISCHARGE (KAF)166138120
15BONO3COLUMBIA-BONNEVILLE DAM10-07-2019INFLOW (KAF)299623485986
16BRNI1SNAKE-BROWNLEE DAM10-07-2019INFLOW (KAF)2924367979
17BUDW1BUMPING-BUMPING LAKE DAM10-07-2019INFLOW (KAF)253474
18BULO3BULLY CREEK-BULLY CREEK DAM10-07-2019INFLOW (KAF)32174
19CABI1CLARK FORK-CABINET GORGE DAM10-07-2019INFLOW (KAF)2765359977
20CFMM8FLATHEAD-AT COLUMBIA FALLS10-07-2019DISCHARGE (KAF)892120774
21CHDW1CHELAN-LAKE CHELAN DAM10-07-2019INFLOW (KAF)242157154
22CHEI1FALL RIVER-NEAR CHESTER10-07-2019DISCHARGE (KAF)122112110
23CHJW1COLUMBIA-CHIEF JOSEPH DAM10-07-2019INFLOW (KAF)2080120817100
24CIBW1COLUMBIA-AT INTL BOUNDARY10-07-2019DISCHARGE (KAF)18798MM
25CLFW1NACHES-NEAR CLIFFDEL10-07-2019DISCHARGE (KAF)569856
26CLUW1CLE ELUM-CLE ELUM LAKE10-07-2019INFLOW (KAF)8510085
27COEI1COEUR D ALENE-COEUR D ALENE LAKE10-07-2019INFLOW (KAF)33658358
28CSDI1NF PAYETTE-CASCADE DAM10-07-2019INFLOW (KAF)919399
29DEDI1DEADWOOD-NEAR LOWMAN10-07-2019INFLOW (KAF)181998
30DLGM8CLARK FORK-AT DEER LODGE10-07-2019DISCHARGE (KAF)6564101
31DRMM8CLARK FORK-NR DRUMMOND10-07-2019DISCHARGE (KAF)149MM
32DWRI1NF CLEARWATER-DWORSHAK DAM10-07-2019INFLOW (KAF)28447460
33EASW1YAKIMA-AT EASTON10-07-2019DISCHARGE (KAF)486475
34EMMI1PAYETTE-NEAR EMMETT10-07-2019DISCHARGE (KAF)26634776
35FCFM8NF FLATHEAD-NEAR COLUMBIA FALLS10-07-2019DISCHARGE (KAF)16119981
36GCDW1COLUMBIA-GRAND COULEE DAM10-07-2019INFLOW (KAF)1981417361114
37GIBO3UMATILLA-NEAR GIBBON10-07-2019DISCHARGE (KAF)222977
38HALI1BIG WOOD-AT HAILEY10-07-2019DISCHARGE (KAF)4741116
39HEII1SNAKE-NEAR HEISE10-07-2019DISCHARGE (KAF)639637100
40HHWM8SF FLATHEAD-HUNGRY HORSE DAM10-07-2019INFLOW (KAF)23224694
41HODO3HOOD-NEAR TUCKER BRIDGE10-07-2019DISCHARGE (KAF)242206117
42HOPI1PEND OREILLE-PEND OREILLE LAKE NR HOPE10-07-2019LAKE ELEVATION (FT)MMM
43HOTI1BRUNEAU-NEAR HOT SPRINGS10-07-2019DISCHARGE (KAF)3526133
44HWRI1BIG LOST-AT HOWELL RANCH NEAR CHILLY10-07-2019DISCHARGE (KAF)2822124
45IHDW1SNAKE-ICE HARBOR DAM10-07-2019INFLOW (KAF)5010725969
46IPDI1HENRYS FORK-ISLAND PARK DAM10-07-2019INFLOW (KAF)121119102
47JDAO3COLUMBIA-JOHN DAY DAM10-07-2019INFLOW (KAF)285722971296
48JKSW4SNAKE-NEAR JACKSON10-07-2019DISCHARGE (KAF)333320104
49JLKW4SNAKE-JACKSON LAKE AT DAM10-07-2019INFLOW (KAF)133112118
50KADW1KACHESS-KACHESS DAM10-07-2019INFLOW (KAF)324276
51KEDW1YAKIMA-KEECHELUS LAKE10-07-2019INFLOW (KAF)495099
52KERM8FLATHEAD-KERR DAM10-07-2019INFLOW (KAF)1029150968
53KIOW1YAKIMA-AT KIONA10-07-2019DISCHARGE (KAF)47565572
54LAUW1KETTLE-AT LAURIER10-07-2019DISCHARGE (KAF)266128208
55LEOI1KOOTENAI-AT LEONIA10-07-2019DISCHARGE (KAF)20561639125
56LGDW1SNAKE-LOWER GRANITE DAM10-07-2019INFLOW (KAF)4975723169
57LGSW1SNAKE-LITTLE GOOSE DAM10-07-2019INFLOW (KAF)4975728368
58LLKW1SPOKANE-AT LONGLAKE10-07-2019INFLOW (KAF)657103464
59LMNW1SNAKE-LOWER MONUMENTAL DAM10-07-2019INFLOW (KAF)5010733168
60LUCI1BOISE-LUCKY PEAK DAM10-07-2019INFLOW (KAF)29MM
61LWRI1LITTLE WOOD-LITTLE WOOD DAM10-07-2019INFLOW (KAF)2015131
62LYDM8KOOTENAI-LIBBY DAM10-07-2019INFLOW (KAF)951956100
63MACI1BIG LOST-MACKAY RESERVOIR NEAR MACKAY10-07-2019INFLOW (KAF)477695
64MAGI1BIG WOOD-MAGIC DAM10-07-2019INFLOW (KAF)3327120
65MCDW1COLUMBIA-MCNARY DAM10-07-2019INFLOW (KAF)275162888695
66MILI1SNAKE-AT MILNER10-07-2019DISCHARGE (KAF)M505M
67MODO3DESCHUTES-AT MOODY NR BIGGS10-07-2019DISCHARGE (KAF)13421343100
68MONO3NF JOHN DAY-AT MONUMENT10-07-2019DISCHARGE (KAF)618572
69MYKO3MCKAY CREEK-NEAR PILOT ROCK10-07-2019DISCHARGE (KAF)1413105
70NACW1NACHES-NEAR NACHES10-07-2019DISCHARGE (KAF)7270102
71NOXM8CLARK FORK-NOXON RAPIDS DAM10-07-2019INFLOW (KAF)2523345873
72ORFI1CLEARWATER-AT OROFINO10-07-2019DISCHARGE (KAF)53662486
73OWYO3OWYHEE-OWYHEE DAM10-07-2019INFLOW (KAF)8673117
74PARI1BOISE-NEAR PARMA10-07-2019DISCHARGE (KAF)20421296
75PARW1YAKIMA-NEAR PARKER10-07-2019DISCHARGE (KAF)31841577
76PATW1METHOW-NEAR PATEROS10-07-2019DISCHARGE (KAF)124101123
77PDTO3UMATILLA-AT PENDLETON10-07-2019DISCHARGE (KAF)566487
78PESW1WENATCHEE-AT PESHASTIN10-07-2019DISCHARGE (KAF)26129090
79PIHI1PORTNEUF-AT POCATELLO10-07-2019DISCHARGE (KAF)595999
80PITW1KLICKITAT-NEAR PITT10-07-2019DISCHARGE (KAF)20825582
81PLDI1SF SNAKE-PALISADES DAM10-07-2019INFLOW (KAF)678657103
82PRTI1PRIEST-NEAR PRIEST RIVER10-07-2019DISCHARGE (KAF)22223395
83PRWW1COLUMBIA-PRIEST RAPIDS DAM10-07-2019INFLOW (KAF)2199819774111
84RCCM8ROCK CREEK-NEAR CLINTON10-07-2019DISCHARGE (KAF)6251122
85REXI1HENRYS FORK-AT REXBURG10-07-2019DISCHARGE (KAF)496431115
86RIDI1WILLOW CREEK-RIRIE DAM10-07-2019INFLOW (KAF)128142
87RILW1TIETON-RIMROCK LAKE NEAR RIMROCK10-07-2019INFLOW (KAF)536582
88RRHW1COLUMBIA-ROCKY REACH DAM10-07-2019INFLOW (KAF)2175021702100
89SATI1ST MARIES-NEAR SANTA10-07-2019DISCHARGE (KAF)172861
90SERO3JOHN DAY-AT SERVICE CK10-07-2019DISCHARGE (KAF)13116380
91SHYI1SNAKE-NEAR SHELLEY10-07-2019DISCHARGE (KAF)922802115
92SIFI1SNAKE-AB EAGLE ROCK NR IDAHO FALLS10-07-2019DISCHARGE (KAF)931825113
93SJMI1ST JOE-AT ST MARIES10-07-2019STAGE (FT)MMM
94SNAI1SNAKE-AT BLACKFOOT10-07-2019DISCHARGE (KAF)801714112
95SPDI1CLEARWATER-AT SPALDING10-07-2019DISCHARGE (KAF)993148567
96SPOW1SPOKANE-AT SPOKANE10-07-2019DISCHARGE (KAF)467MM
97SRGM8CLARK FORK-AT ST REGIS10-07-2019DISCHARGE (KAF)73676596
98STRM8ST. REGIS-NEAR ST. REGIS10-07-2019DISCHARGE (KAF)203656
99SWAI1SNAKE-BELOW SWAN FALLS10-07-2019DISCHARGE (KAF)1883253174
100TCHW1WALLA WALLA-NEAR TOUCHET10-07-2019DISCHARGE (KAF)10094106
101TDAO3COLUMBIA-THE DALLES DAM10-07-2019INFLOW (KAF)293133293089
102TEAI1TETON-NEAR ST. ANTHONY10-07-2019DISCHARGE (KAF)113109103
103TNAW1TEANAWAY-BELOW FORKS10-07-2019DISCHARGE (KAF)163445
104TONW1OKANOGAN-NEAR TONASKET10-07-2019DISCHARGE (KAF)25328290
105TRYO3GRANDE RONDE-TROY10-07-2019DISCHARGE (KAF)20227175
106UMAO3UMATILLA-NEAR UMATILLA10-07-2019DISCHARGE (KAF)9666146
107UMTW1YAKIMA-AT UMTANUM10-07-2019DISCHARGE (KAF)18824577
108UNDW1WHITE SALMON-NEAR UNDERWOOD10-07-2019DISCHARGE (KAF)21521998
109WANW1COLUMBIA-WANAPUM DAM10-07-2019INFLOW (KAF)2200419450113
110WEII1SNAKE-AT WEISER10-07-2019DISCHARGE (KAF)2744358377
111WELW1COLUMBIA-WELLS DAM10-07-2019INFLOW (KAF)2117521186100
112WGCM8MF FLATHEAD-NEAR WEST GLACIER10-07-2019DISCHARGE (KAF)15817591
113WHBI1SALMON-AT WHITEBIRD10-07-2019DISCHARGE (KAF)1001109591
114WRMO3MALHEUR-WARM SPRINGS DAM10-07-2019INFLOW (KAF)171796
115WSRI1WEISER-NEAR WEISER10-07-2019DISCHARGE (KAF)446567